| time (UTC) | temp F | wind direction | speed MPH | gust MPH | rain 1hr in | rain 24hr in | rain mn in | humidity % | barometer mb |
| 20260903214217 | 81 | 182 | 9.0 | 20.0 | 0.00 | 0.00 | 0.00 | 13 | 1015.2 |
| 20260903213236 | 81 | 179 | 14.0 | 22.0 | 0.00 | 0.00 | 0.00 | 13 | 1015.5 |
| 20260903212216 | 81 | 189 | 17.0 | 25.0 | 0.00 | 0.00 | 0.00 | 13 | 1015.7 |
| 20260903211236 | 81 | 187 | 12.0 | 21.0 | 0.00 | 0.00 | 0.00 | 13 | 1015.3 |
| 20260903210217 | 81 | 188 | 14.0 | 24.0 | 0.00 | 0.00 | 0.00 | 14 | 1015.7 |
| 20260903205216 | 81 | 189 | 14.0 | 26.0 | 0.00 | 0.00 | 0.00 | 14 | 1015.8 |
| 20260903204216 | 80 | 209 | 8.0 | 17.0 | 0.00 | 0.00 | 0.00 | 14 | 1015.9 |
| 20260903203217 | 80 | 179 | 15.0 | 22.0 | 0.00 | 0.00 | 0.00 | 14 | 1016.0 |
| 20260903202216 | 80 | 223 | 16.0 | 26.0 | 0.00 | 0.00 | 0.00 | 15 | 1016.1 |
| 20260903201236 | 80 | 214 | 9.0 | 16.0 | 0.00 | 0.00 | 0.00 | 15 | 1016.5 |
| 20260903200217 | 80 | 173 | 12.0 | 24.0 | 0.00 | 0.00 | 0.00 | 14 | 1016.7 |
| 20260903195217 | 79 | 220 | 6.0 | 12.0 | 0.00 | 0.00 | 0.00 | 15 | 1016.8 |
| 20260903194216 | 79 | 214 | 13.0 | 23.0 | 0.00 | 0.00 | 0.00 | 14 | 1016.9 |
| 20260903193216 | 78 | 189 | 10.0 | 15.0 | 0.00 | 0.00 | 0.00 | 14 | 1017.1 |
| 20260903192216 | 78 | 180 | 8.0 | 12.0 | 0.00 | 0.00 | 0.00 | 15 | 1017.2 |
| 20260903191256 | 78 | 170 | 9.0 | 14.0 | 0.00 | 0.00 | 0.00 | 15 | 1017.4 |
| 20260903190216 | 78 | 195 | 9.0 | 18.0 | 0.00 | 0.00 | 0.00 | 15 | 1017.5 |
| 20260903185216 | 77 | 205 | 5.0 | 13.0 | 0.00 | 0.00 | 0.00 | 14 | 1017.5 |
| 20260903184236 | 77 | 192 | 6.0 | 12.0 | 0.00 | 0.00 | 0.00 | 16 | 1017.7 |
| 20260903183216 | 77 | 186 | 7.0 | 13.0 | 0.00 | 0.00 | 0.00 | 15 | 1017.8 |
| 20260903182216 | 77 | 183 | 9.0 | 17.0 | 0.00 | 0.00 | 0.00 | 16 | 1017.9 |
| 20260903181216 | 76 | 170 | 11.0 | 15.0 | 0.00 | 0.00 | 0.00 | 16 | 1018.2 |
| 20260903180216 | 76 | 182 | 10.0 | 15.0 | 0.00 | 0.00 | 0.00 | 17 | 1018.5 |
| 20260903175216 | 75 | 160 | 7.0 | 12.0 | 0.00 | 0.00 | 0.00 | 17 | 1018.3 |
| 20260903174216 | 76 | 177 | 4.0 | 11.0 | 0.00 | 0.00 | 0.00 | 16 | 1018.6 |
| 20260903173216 | 76 | 191 | 8.0 | 12.0 | 0.00 | 0.00 | 0.00 | 17 | 1018.6 |
| 20260903172216 | 75 | 163 | 6.0 | 10.0 | 0.00 | 0.00 | 0.00 | 17 | 1018.7 |
| 20260903171216 | 75 | 165 | 7.0 | 12.0 | 0.00 | 0.00 | 0.00 | 17 | 1018.7 |
| 20260903170216 | 74 | 181 | 9.0 | 23.0 | 0.00 | 0.00 | 0.00 | 17 | 1018.8 |
| 20260903165216 | 74 | 186 | 10.0 | 19.0 | 0.00 | 0.00 | 0.00 | 18 | 1018.8 |
| 20260903164216 | 74 | 199 | 10.0 | 15.0 | 0.00 | 0.00 | 0.00 | 18 | 1018.6 |
| 20260903163236 | 73 | 193 | 9.0 | 15.0 | 0.00 | 0.00 | 0.00 | 18 | 1018.6 |
| 20260903162237 | 73 | 177 | 8.0 | 14.0 | 0.00 | 0.00 | 0.00 | 18 | 1018.7 |
| 20260903161216 | 72 | 168 | 6.0 | 12.0 | 0.00 | 0.00 | 0.00 | 20 | 1018.4 |
| 20260903160236 | 71 | 155 | 3.0 | 6.0 | 0.00 | 0.00 | 0.00 | 35 | 1018.9 |
| 20260903155216 | 71 | 93 | 6.0 | 9.0 | 0.00 | 0.00 | 0.00 | 35 | 1018.8 |
| 20260903154215 | 71 | 91 | 2.0 | 6.0 | 0.00 | 0.00 | 0.00 | 30 | 1018.9 |
| 20260903153216 | 70 | 97 | 1.0 | 2.0 | 0.00 | 0.00 | 0.00 | 28 | 1018.8 |
| 20260903152216 | 70 | 127 | 2.0 | 4.0 | 0.00 | 0.00 | 0.00 | 32 | 1019.1 |
| 20260903151216 | 70 | 125 | 1.0 | 2.0 | 0.00 | 0.00 | 0.00 | 24 | 1019.0 |
| 20260903150236 | 68 | 75 | 1.0 | 2.0 | 0.00 | 0.00 | 0.00 | 20 | 1018.6 |
| 20260903145216 | 67 | 12 | 2.0 | 5.0 | 0.00 | 0.00 | 0.00 | 20 | 1018.5 |
| 20260903144256 | 67 | 5 | 2.0 | 3.0 | 0.00 | 0.00 | 0.00 | 22 | 1018.6 |
| 20260903143236 | 66 | 5 | 3.0 | 4.0 | 0.00 | 0.00 | 0.00 | 24 | 1018.5 |
| 20260903142215 | 65 | 263 | 2.0 | 4.0 | 0.00 | 0.00 | 0.00 | 23 | 1018.1 |
| 20260903141216 | 64 | 248 | 4.0 | 8.0 | 0.00 | 0.00 | 0.00 | 23 | 1018.2 |
| 20260903140216 | 63 | 248 | 4.0 | 9.0 | 0.00 | 0.00 | 0.00 | 23 | 1017.8 |
| 20260903135236 | 63 | 261 | 4.0 | 6.0 | 0.00 | 0.00 | 0.00 | 24 | 1017.9 |
| 20260903134216 | 62 | 259 | 5.0 | 7.0 | 0.00 | 0.00 | 0.00 | 24 | 1017.7 |
| 20260903133215 | 62 | 249 | 7.0 | 10.0 | 0.00 | 0.00 | 0.00 | 24 | 1017.6 |
| 20260903132215 | 62 | 257 | 9.0 | 13.0 | 0.00 | 0.00 | 0.00 | 24 | 1017.5 |
| 20260903131215 | 62 | 258 | 5.0 | 9.0 | 0.00 | 0.00 | 0.00 | 24 | 1017.3 |
| 20260903130215 | 61 | 249 | 8.0 | 10.0 | 0.00 | 0.00 | 0.00 | 24 | 1017.3 |
| 20260903125216 | 61 | 244 | 6.0 | 8.0 | 0.00 | 0.00 | 0.00 | 24 | 1017.1 |
| 20260903124215 | 61 | 233 | 5.0 | 10.0 | 0.00 | 0.00 | 0.00 | 24 | 1017.1 |
| 20260903123215 | 61 | 245 | 6.0 | 10.0 | 0.00 | 0.00 | 0.00 | 25 | 1017.2 |
| 20260903122215 | 61 | 251 | 5.0 | 8.0 | 0.00 | 0.00 | 0.00 | 24 | 1017.0 |
| 20260903121215 | 62 | 237 | 5.0 | 9.0 | 0.00 | 0.00 | 0.00 | 24 | 1017.3 |
| 20260903120215 | 62 | 234 | 6.0 | 10.0 | 0.00 | 0.00 | 0.00 | 24 | 1017.3 |
| 20260903115235 | 61 | 267 | 4.0 | 7.0 | 0.00 | 0.00 | 0.00 | 26 | 1017.1 |
| 20260903114218 | 60 | 267 | 2.0 | 3.0 | 0.00 | 0.00 | 0.00 | 26 | 1017.1 |
| 20260903113235 | 60 | 267 | 2.0 | 3.0 | 0.00 | 0.00 | 0.00 | 26 | 1017.1 |
| 20260903112215 | 60 | 267 | 3.0 | 4.0 | 0.00 | 0.00 | 0.00 | 26 | 1017.0 |
| 20260903111215 | 61 | 267 | 3.0 | 4.0 | 0.00 | 0.00 | 0.00 | 24 | 1017.0 |
| 20260903110215 | 63 | 267 | 0.0 | 1.0 | 0.00 | 0.00 | 0.00 | 23 | 1017.3 |
| 20260903105235 | 63 | 267 | 2.0 | 3.0 | 0.00 | 0.00 | 0.00 | 22 | 1017.3 |
| 20260903104215 | 64 | 267 | 4.0 | 6.0 | 0.00 | 0.00 | 0.00 | 22 | 1017.4 |
| 20260903103215 | 64 | 267 | 4.0 | 6.0 | 0.00 | 0.00 | 0.00 | 22 | 1017.4 |
| 20260903102215 | 63 | 267 | 3.0 | 4.0 | 0.00 | 0.00 | 0.00 | 22 | 1017.4 |
| 20260903101235 | 64 | 260 | 3.0 | 5.0 | 0.00 | 0.00 | 0.00 | 22 | 1017.4 |
| 20260903100215 | 64 | 244 | 4.0 | 5.0 | 0.00 | 0.00 | 0.00 | 22 | 1017.3 |
| 20260903095215 | 64 | 252 | 4.0 | 6.0 | 0.00 | 0.00 | 0.00 | 22 | 1017.3 |
| 20260903094235 | 64 | 254 | 6.0 | 9.0 | 0.00 | 0.00 | 0.00 | 22 | 1017.2 |
| 20260903093215 | 64 | 260 | 4.0 | 6.0 | 0.00 | 0.00 | 0.00 | 23 | 1017.2 |
| 20260903092215 | 64 | 250 | 2.0 | 3.0 | 0.00 | 0.00 | 0.00 | 23 | 1017.1 |
| 20260903091215 | 63 | 250 | 2.0 | 2.0 | 0.00 | 0.00 | 0.00 | 23 | 1017.0 |
| 20260903090215 | 62 | 350 | 2.0 | 3.0 | 0.00 | 0.00 | 0.00 | 24 | 1016.7 |
| 20260903085215 | 62 | 350 | 1.0 | 2.0 | 0.00 | 0.00 | 0.00 | 24 | 1016.6 |
| 20260903084217 | 62 | 350 | 1.0 | 2.0 | 0.00 | 0.00 | 0.00 | 24 | 1016.6 |
| 20260903083215 | 62 | 350 | 1.0 | 3.0 | 0.00 | 0.00 | 0.00 | 24 | 1016.4 |
| 20260903082257 | 63 | 328 | 2.0 | 5.0 | 0.00 | 0.00 | 0.00 | 23 | 1016.7 |
| 20260903081216 | 63 | 252 | 2.0 | 3.0 | 0.00 | 0.00 | 0.00 | 23 | 1016.4 |
| 20260903080237 | 64 | 252 | 1.0 | 3.0 | 0.00 | 0.00 | 0.00 | 23 | 1016.4 |
| 20260903075217 | 64 | 252 | 1.0 | 3.0 | 0.00 | 0.00 | 0.00 | 23 | 1016.4 |
| 20260903074217 | 65 | 252 | 0.0 | 3.0 | 0.00 | 0.00 | 0.00 | 23 | 1016.4 |
| 20260903073217 | 66 | 0.0 | 1.0 | 0.00 | 0.00 | 0.00 | 22 | 1016.4 | |
| 20260903072217 | 66 | 252 | 2.0 | 3.0 | 0.00 | 0.00 | 0.00 | 22 | 1016.5 |
| 20260903071217 | 66 | 252 | 1.0 | 3.0 | 0.00 | 0.00 | 0.00 | 21 | 1016.4 |
| 20260903070217 | 67 | 258 | 3.0 | 4.0 | 0.00 | 0.00 | 0.00 | 21 | 1016.3 |
| 20260903065217 | 67 | 213 | 2.0 | 5.0 | 0.00 | 0.00 | 0.00 | 21 | 1016.5 |
| 20260903064217 | 67 | 195 | 2.0 | 4.0 | 0.00 | 0.00 | 0.00 | 23 | 1016.4 |
| 20260903063217 | 68 | 198 | 1.0 | 2.0 | 0.00 | 0.00 | 0.00 | 22 | 1015.9 |
| 20260903062217 | 68 | 249 | 0.0 | 1.0 | 0.00 | 0.00 | 0.00 | 22 | 1016.1 |
| 20260903061216 | 68 | 249 | 1.0 | 2.0 | 0.00 | 0.00 | 0.00 | 21 | 1015.9 |
| 20260903060217 | 69 | 249 | 0.0 | 1.0 | 0.00 | 0.00 | 0.00 | 21 | 1015.7 |
| 20260903055254 | 69 | 249 | 1.0 | 2.0 | 0.00 | 0.00 | 0.00 | 20 | 1015.7 |
| 20260903054216 | 70 | 249 | 1.0 | 3.0 | 0.00 | 0.00 | 0.00 | 20 | 1015.7 |
| 20260903053216 | 70 | 249 | 2.0 | 5.0 | 0.00 | 0.00 | 0.00 | 18 | 1015.6 |
| 20260903052236 | 70 | 249 | 1.0 | 3.0 | 0.00 | 0.00 | 0.00 | 19 | 1015.6 |
| 20260903051236 | 71 | 256 | 1.0 | 2.0 | 0.00 | 0.00 | 0.00 | 19 | 1016.0 |
| 20260903050216 | 71 | 256 | 2.0 | 5.0 | 0.00 | 0.00 | 0.00 | 18 | 1016.0 |
| 20260903045216 | 71 | 242 | 1.0 | 3.0 | 0.00 | 0.00 | 0.00 | 18 | 1016.1 |
| 20260903044215 | 72 | 265 | 3.0 | 4.0 | 0.00 | 0.00 | 0.00 | 18 | 1016.2 |
| 20260903043216 | 73 | 258 | 4.0 | 7.0 | 0.00 | 0.00 | 0.00 | 17 | 1016.0 |
| 20260903042215 | 73 | 234 | 4.0 | 10.0 | 0.00 | 0.00 | 0.00 | 16 | 1016.0 |
| 20260903041215 | 73 | 258 | 7.0 | 11.0 | 0.00 | 0.00 | 0.00 | 16 | 1015.8 |
| 20260903040215 | 73 | 242 | 6.0 | 10.0 | 0.00 | 0.00 | 0.00 | 16 | 1015.5 |
| 20260903035215 | 73 | 249 | 3.0 | 6.0 | 0.00 | 0.00 | 0.00 | 17 | 1015.4 |
| 20260903034216 | 73 | 200 | 2.0 | 5.0 | 0.00 | 0.00 | 0.00 | 18 | 1015.4 |
| 20260903033215 | 74 | 259 | 1.0 | 3.0 | 0.00 | 0.00 | 0.00 | 17 | 1015.0 |
| 20260903032216 | 74 | 262 | 2.0 | 4.0 | 0.00 | 0.00 | 0.00 | 17 | 1015.1 |
| 20260903031215 | 74 | 230 | 8.0 | 10.0 | 0.00 | 0.00 | 0.00 | 15 | 1014.8 |
| 20260903030236 | 74 | 251 | 3.0 | 5.0 | 0.00 | 0.00 | 0.00 | 17 | 1015.2 |
| 20260903025215 | 75 | 236 | 4.0 | 6.0 | 0.00 | 0.00 | 0.00 | 16 | 1015.2 |
| 20260903024215 | 75 | 227 | 1.0 | 2.0 | 0.00 | 0.00 | 0.00 | 16 | 1015.4 |
| 20260903023215 | 75 | 178 | 3.0 | 6.0 | 0.00 | 0.00 | 0.00 | 16 | 1015.0 |
| 20260903022235 | 76 | 234 | 2.0 | 4.0 | 0.00 | 0.00 | 0.00 | 15 | 1015.0 |
| 20260903021215 | 76 | 191 | 1.0 | 3.0 | 0.00 | 0.00 | 0.00 | 15 | 1015.1 |
| 20260903020215 | 77 | 190 | 3.0 | 7.0 | 0.00 | 0.00 | 0.00 | 15 | 1014.8 |
| 20260903015215 | 77 | 184 | 3.0 | 6.0 | 0.00 | 0.00 | 0.00 | 15 | 1015.4 |
| 20260903014255 | 78 | 191 | 5.0 | 8.0 | 0.00 | 0.00 | 0.00 | 15 | 1015.4 |
| 20260903013215 | 78 | 192 | 6.0 | 13.0 | 0.00 | 0.00 | 0.00 | 15 | 1015.3 |
| 20260903012215 | 79 | 200 | 9.0 | 13.0 | 0.00 | 0.00 | 0.00 | 14 | 1015.8 |
| 20260903011215 | 79 | 212 | 8.0 | 13.0 | 0.00 | 0.00 | 0.00 | 15 | 1015.8 |
| 20260903010215 | 79 | 204 | 9.0 | 15.0 | 0.00 | 0.00 | 0.00 | 14 | 1015.5 |
| 20260903005235 | 79 | 196 | 10.0 | 14.0 | 0.00 | 0.00 | 0.00 | 14 | 1015.6 |
| 20260903004215 | 79 | 179 | 6.0 | 10.0 | 0.00 | 0.00 | 0.00 | 15 | 1015.7 |
| 20260903003215 | 80 | 203 | 8.0 | 13.0 | 0.00 | 0.00 | 0.00 | 15 | 1015.4 |
| 20260903002255 | 80 | 202 | 12.0 | 18.0 | 0.00 | 0.00 | 0.00 | 15 | 1015.4 |
| 20260903001215 | 80 | 190 | 11.0 | 18.0 | 0.00 | 0.00 | 0.00 | 14 | 1015.5 |
| 20260903000215 | 81 | 211 | 12.0 | 23.0 | 0.00 | 0.00 | 0.00 | 13 | 1015.5 |
| 20260902235215 | 81 | 222 | 12.0 | 22.0 | 0.00 | 0.00 | 0.00 | 14 | 1015.7 |
| 20260902234215 | 81 | 204 | 12.0 | 26.0 | 0.00 | 0.00 | 0.00 | 15 | 1015.9 |
| 20260902233215 | 81 | 208 | 11.0 | 18.0 | 0.00 | 0.00 | 0.00 | 15 | 1016.0 |
| 20260902232217 | 80 | 199 | 10.0 | 15.0 | 0.00 | 0.00 | 0.00 | 18 | 1016.2 |
| 20260902231217 | 80 | 194 | 14.0 | 20.0 | 0.00 | 0.00 | 0.00 | 16 | 1016.2 |
| 20260902230217 | 80 | 199 | 8.0 | 15.0 | 0.00 | 0.00 | 0.00 | 16 | 1016.3 |
| 20260902225217 | 81 | 233 | 16.0 | 20.0 | 0.00 | 0.00 | 0.00 | 15 | 1016.5 |
| 20260902224217 | 80 | 177 | 8.0 | 13.0 | 0.00 | 0.00 | 0.00 | 19 | 1016.4 |
| 20260902223237 | 81 | 188 | 10.0 | 18.0 | 0.00 | 0.00 | 0.00 | 18 | 1016.3 |
| 20260902222237 | 81 | 217 | 11.0 | 17.0 | 0.00 | 0.00 | 0.00 | 17 | 1016.6 |
| 20260902221217 | 81 | 210 | 12.0 | 20.0 | 0.00 | 0.00 | 0.00 | 18 | 1016.6 |
| 20260902220217 | 81 | 212 | 11.0 | 19.0 | 0.00 | 0.00 | 0.00 | 18 | 1016.6 |
| 20260902215217 | 80 | 187 | 12.0 | 22.0 | 0.00 | 0.00 | 0.00 | 20 | 1016.5 |